SL-12 DEB, 41641

Orbit data source: Space-Track

SL-12 DEB, 41641 is space debris in HEO originally from a launch on Thu, 25 Dec 2008 UTC launched from the Tyuratam Missile And Space Complex (TTMTR). Debris objects in space refer to the collection of defunct objects orbiting the Earth. Examples of debris include non-operational satellites, rocket bodies, and fragments generated from explosions, collisions, or faulty payload assembly.

Loading next visibility...
Identifier
41641, 2008-067M
Orbit
HEO
Country
Flag of CISCIS
Related business
Manufacturer
RKKE
Mission
Spacecraft
Bus & Motor
Unknown
Mass
Unknown
Launch date (UTC)
2008-12-25 (17 years ago)
Launch vehicle
Unknown
Launch site
Tyuratam Missile And Space Complex (TTMTR)
Object type
Payload
Rocket body
Debris
Shape & HBR
Unknown shape, 0.6 m
Radar Cross Section
Medium (>0.1 m² and <1 m²)

Expand to show TLE details & history
Last TLE update: 2 days ago

TLE from 2 days ago
0 SL-12 DEB
1 41641U 08067M   26171.17077159  .00000113  00000-0  51564-3 0  9990
2 41641  65.0662 134.1795 5541930 284.6673  22.5292  4.29403209155068
Epoch: 2026-06-20T04:05Z
TLE epoch observation values (Epoch: 2026-06-20T04:05:54.665Z)
Latitude
-0.0001°
Longitude
164.30715°
Altitude
3,346.455 km
Speed
7.554 km/s
True Right ascension
08h 56m 41s
True Declination
0° 00' 00"
Sunlit
Object was in daylight at epoch
Visualization orbit readout
Latitude
Unknown
Longitude
Unknown
Altitude
Unknown
Speed
Unknown
Apparent Right ascension
Unknown
Apparent Declination
Unknown
Sunlit
N/A
Visualization observer readout
Local Sidereal Time
21:39:59
Azimuth
Unknown
Elevation
Unknown
Doppler factor
Unknown
Orbital elements
Apogee altitude
18,470.348 km
Perigee altitude
749.439 km
Semi-major axis
15,988.031 km
Eccentricity
0.55419
Inclination
65.0662°
RAAN
134.1795°
Arg. of periapsis
284.6673°
True anomaly
75.39589°
Mean anomaly
22.5292°
Eccentric anomaly
44.97024°
Mean motion
1.07362 °/min
Orbital period
335.31 mins
BSTAR
0.00051564
Loading maneuver chart data...
Computing Atmospheric mass density...
Loading historical data...
Loading historical data...
Loading historical data...
Loading historical data...
Loading historical data...
Loading historical data...
Loading historical data...

Documentation

Showing up to 5 results
|